Location: ?????????
(41.2286°N, 23.0068°E)
Time: 08:59:30
(UTC+00:00)

Cosmos 1725 Rocket - Pass Details

Date: 08 November 2025
Orbit: 962 x 989 km, 82.9° (Epoch: 05 December)

Event Time Altitude Azimuth Distance (km) Brightness Sun altitude
Rises 03:12:13 0° 354° (N) 3,710 7.0 -21.9°
Reaches altitude 10° 03:14:46 10° 357° (N) 2,758 6.3 -21.5°
Maximum altitude 03:21:05 69° 81° (E) 1,056 4.3 -20.3°
Drops below altitude 10° 03:27:20 10° 164° (SSE) 2,735 6.6 -19.1°
Sets 03:29:51 0° 167° (SSE) 3,676 7.3 -18.6°
